User: anonymous   Login
Location: Unspecified
(0.0000°N, 0.0000°E)
Time: 12:38:15
(UTC+00:00)
Language:

YAOGAN 11 - Orbit

View from above orbital plane
View from above orbital plane
View from above satellite
View from above satellite

Ground track
Ground track

The orbit data is extracted from the following two-line orbital elements,

1 37165U 10047A   18201.12528026  .00000080  00000-0  19434-4 0  9995
2 37165  98.2925 280.2054 0038465 110.9467 249.5872 14.76391477421399
Epoch (UTC): 20 July 2018 03:00:24
Eccentricity: 0.0038465
inclination: 98.2925°
perigee height: 614 km
apogee height: 668 km
right ascension of ascending node: 280.2054°
argument of perigee: 110.9467°
revolutions per day: 14.76391477
mean anomaly at epoch: 249.5872°
orbit number at epoch: 42139

The dashed part of the orbit path shows where the satellite is in the earth's shadow,  

DLR